Weather Service Report


566 
ASUS45 KSLC 251810
RWRUT 

UTAH REGIONAL WEATHER ROUNDUP
NATIONAL WEATHER SERVICE SALT LAKE CITY UT
1200 PM MDT MON JUL 25 2016

UTZ001>011-023>025-251900-

NORTHERN UTAH
  
CITY           SKY/WX    TMP DP  RH WIND       PRES   REMARKS
BRIGHAM CITY     N/A     86  33  14 W5        30.10S                  
DUGWAY         MOSUNNY   91  31  12 NW7       30.11S                  
HILL AFB       SUNNY     90  35  14 SW5       30.13S                  
LOGAN          SUNNY     80  39  23 VRB6      30.12F                  
OGDEN          SUNNY     90  34  13 SW3       30.10S                  
PROVO AIRPORT  MOSUNNY   91  43  18 NE7       30.11F                  
SALT LAKE CITY MOSUNNY   94  41  16 VRB5      30.07S HX  90           
VERNAL         SUNNY     87  30  13 VRB5      30.19F                  
WENDOVER       SUNNY     86  30  13 SE8       30.10S                  
HEBER CITY     SUNNY     82  41  23 NW3       30.18F                  

$$

UTZ012>022-026-027-251900-

SOUTHERN/CENTRAL UTAH
  
CITY           SKY/WX    TMP DP  RH WIND       PRES   REMARKS
BLANDING       MOSUNNY   84  46  25 S6        30.35F                  
BRYCE CANYON   SUNNY     82  36  19 SW8G16    30.39F                  
CEDAR CITY     SUNNY     92  41  17 S8        30.21F                  
DELTA          SUNNY     93  36  13 S10G16    30.12F                  
MILFORD        SUNNY     93  45  19 S16G24    30.15F                  
MOAB/CYNLANDS  SUNNY     96  41  15 MISG      30.12S HX  92           
PRICE          MOSUNNY   89  27  10 S8        30.23F                  
ST GEORGE      CLEAR     97  52  21 N3        30.03F HX  94           

$$

REGIONAL REPORTS     COLORADO/ARIZONA
  
CITY           SKY/WX    TMP DP  RH WIND       PRES   REMARKS
CRAIG, CO      SUNNY     87  32  14 NW9       30.27F                  
GRAND JUNCTION SUNNY     90  42  18 SE9       30.17F                  
RIFLE          SUNNY     86  43  22 VRB5      30.22F                  
MONTROSE       MOSUNNY   86  44  23 VRB5      30.26S                  
CORTEZ         CLOUDY    85  48  27 VRB5      30.28S                  
PAGE, AZ       MOSUNNY   91  45  20 MISG      30.13F                  
GRAND CANYON   PTSUNNY   83  50  31 VRB5      30.35F                  
KINGMAN        PTSUNNY   93  55  27 SW16      30.10S HX  91           
FLAGSTAFF      SUNNY     78  50  37 W6        30.36F                  

$$

REGIONAL REPORTS    NEVADA/IDAHO/WYOMING
  
CITY           SKY/WX    TMP DP  RH WIND       PRES   REMARKS
LAS VEGAS, NV  MOSUNNY  101  42  13 VRB5      29.90S HX  96           
ELY            SUNNY     90  20   7 SW13G22   30.23F                  
ELKO           SUNNY     86  22   9 VRB3      30.15F                  
POCATELLO, ID  SUNNY     83  43  24 VRB5      30.13F                  
BURLEY         SUNNY     82  44  26 VRB5      30.10S                  
EVANSTON, WY   SUNNY     83  32  16 SW13G20   30.31S                  
ROCK SPRINGS   MOSUNNY   82  15   8 W6        30.31R                  
KEMMERER         N/A     81  18   9 SE5       30.34S                  

$$
  

Return to Home page


Western Regional Climate Center, wrcc@dri.edu